SNORRE B OILP current weather conditions

sailwx.info

Visibility: greater than 5.4 NM

Last reported at 2014-Aug-22 20:50 UTC.
Time now 2014-Aug-22 21:44 UTC

Location: N 61°32' E 002°13'.
View on Google Maps.

See reports from other nearby stations

  
Tides and Currents Weather Stations Pressure Air Temp Water Temp Dewpoint Dewpoint Depression Visibility Wind Speed Wind Dir Waves Ship Positions
date/time (UTC)wind fromknots sea level pressurealtimeterstation pressurevisibilityair tempwater tempwave heightnotes
2014-Aug-22 20:50 5.4
2014-Aug-22 20:20 5.4
2014-Aug-22 19:50 020 24 5.4
2014-Aug-22 19:20 020 25 5.4
2014-Aug-22 18:50 020 25 5.4
2014-Aug-22 18:20 020 25 5.4
2014-Aug-22 17:50 030 24 5.4
2014-Aug-22 17:20 030 25 5.4
2014-Aug-22 16:50 030 26 5.4
2014-Aug-22 16:20 030 26 5.4
2014-Aug-22 15:50 030 25 5.4
2014-Aug-22 15:20 030 25 5.4
2014-Aug-22 14:50 030 23 5.4
2014-Aug-22 14:20 030 26 5.4
2014-Aug-22 13:50 030 27 5.4
2014-Aug-22 13:20 040 20 5.4 Light rain showers.
2014-Aug-22 12:50 030 26 5.4
2014-Aug-22 12:20 030 24 5.4
2014-Aug-22 11:50 040 20 5.4
2014-Aug-22 11:20 040 23 5.4
2014-Aug-22 10:50 040 20 5.4
2014-Aug-22 10:20 040 20 5.4
2014-Aug-22 09:50 040 18 5.4
2014-Aug-22 09:20 050 20 5.4 Light rain showers.
2014-Aug-22 08:50 030 22 5.4
2014-Aug-22 08:20 030 23 5.4 Light rain showers.
2014-Aug-22 07:50 040 20 4.9 Light rain showers.
2014-Aug-22 07:20 030 22 5.4
2014-Aug-22 06:50 040 18 5.4
2014-Aug-22 06:20 050 15 5.4 Light rain showers.
2014-Aug-22 05:50 040 11 5.4
2014-Aug-22 05:20 040 20 5.4
2014-Aug-22 04:50 040 14 5.4 Light rain.
2014-Aug-22 04:20 050 16 5.4
2014-Aug-22 03:50 030 16 5.4
2014-Aug-22 03:20 040 12 5.4
2014-Aug-22 02:50 5.4
2014-Aug-22 02:20 5.4 Light rain showers.
2014-Aug-22 01:50 5.4 Drizzle.
2014-Aug-22 01:20 5.4
2014-Aug-22 00:50 5.4
2014-Aug-22 00:20 5.4
2014-Aug-21 23:50 5.4
2014-Aug-21 23:20 5.4 Light rain.
2014-Aug-21 22:50 5.4
2014-Aug-21 22:20 5.4
2014-Aug-21 21:50 5.4
2014-Aug-21 21:20 5.4
2014-Aug-21 20:50 5.4
2014-Aug-21 20:20 5.4
2014-Aug-21 19:50 040 7 5.4
2014-Aug-21 19:20 030 6 5.4
2014-Aug-21 18:50 020 6 5.4
2014-Aug-21 18:20 010 5 5.4
2014-Aug-21 17:50 360 6 5.4
2014-Aug-21 17:20 360 5 5.4
2014-Aug-21 16:50 350 5 5.4
2014-Aug-21 16:20 350 6 5.4
2014-Aug-21 15:50 340 5 5.4
2014-Aug-21 15:20 340 5 5.4
2014-Aug-21 14:50 330 5 5.4
2014-Aug-21 14:20 330 5 5.4
2014-Aug-21 13:50 360 5 5.4
2014-Aug-21 13:20 360 6 5.4
2014-Aug-21 12:50 360 5 5.4
2014-Aug-21 12:20 350 4 5.4
2014-Aug-21 11:50 350 4 5.4
2014-Aug-21 11:20 310 4 5.4
2014-Aug-21 10:50 290 5 5.4
2014-Aug-21 10:20 280 4 5.4
2014-Aug-21 09:50 240 4 5.4
2014-Aug-21 09:20 260 4 5.4
2014-Aug-21 08:50 230 6 5.4 Light rain showers.
2014-Aug-21 08:20 030 7 5.4
2014-Aug-21 07:50 010 8 5.4
2014-Aug-21 07:20 340 4 5.4
2014-Aug-21 06:50 360 4 5.4
2014-Aug-21 06:20 010 4 5.4
2014-Aug-21 05:50 350 4 5.4
2014-Aug-21 05:20 010 7 5.4
2014-Aug-21 04:50 360 6 5.4
2014-Aug-21 04:20 010 7 5.4
2014-Aug-21 03:50 360 9 5.4
2014-Aug-21 03:20 270 4 5.4 Light rain showers.
2014-Aug-21 02:50 4.9 Light rain showers.
2014-Aug-21 02:20 5.4 Light rain showers.
2014-Aug-21 01:50 5.4
2014-Aug-21 01:20 5.4
2014-Aug-21 00:50 4.9
2014-Aug-21 00:20 5.4
2014-Aug-20 23:50 5.4
2014-Aug-20 23:20 5.4
2014-Aug-20 22:50 5.4
2014-Aug-20 22:20 5.4
2014-Aug-20 21:50 350 12 5.4
2014-Aug-20 21:20 360 12 5.4